Regional Weather Roundup
Issued by NWS

Home | Current Version | Previous Version | Text Only | Print | Product List | Glossary On
Versions: 1 2 3 4 5 6 7 8 9 10 11 12 13 14 15 16 17 18 19 20 21 22 23 24 25 26 27 28 29 30 31 32 33 34 35 36 37 38 39 40 41 42 43 44 45 46 47 48 49 50
000
ASUS43 KTOP 300359
RWRKS

WEATHER ROUNDUP FOR KANSAS
NATIONAL WEATHER SERVICE GOODLAND KS
1100 PM CDT FRI APR 29 2016

NOTE:  "FAIR" INDICATES FEW OR NO CLOUDS BELOW 12,000 FEET WITH NO
SIGNIFICANT WEATHER AND/OR OBSTRUCTIONS TO VISIBILITY.

KSZ001>006-013>018-027>032-041>047-300500-
NORTHWEST KANSAS

CITY           SKY/WX    TMP DP  RH WIND       PRES   REMARKS
GOODLAND       CLOUDY    32  32 100 N8        29.84S FOG
HAYS           CLOUDY    45  37  76 N14       29.80F
HILL CITY      LGT RAIN  42  40  92 N13       29.84F
RUSSELL        LGT RAIN  46  46 100 NW13      29.78F FOG
$$

KSZ061>065-074>080-084>089-300500-
SOUTHWEST KANSAS

CITY           SKY/WX    TMP DP  RH WIND       PRES   REMARKS
DODGE CITY     CLOUDY    41  39  93 N14       29.80S
ELKHART          N/A     39  34  82 NW10        N/A  WCI  32
GARDEN CITY    CLOUDY    38  37  97 N10       29.82R WCI  31
GREAT BEND     CLOUDY    46  39  76 NW12      29.78F
LIBERAL        MOCLDY    43  37  81 NW13      29.84S
$$

KSZ066>073-081>083-090>101-300500-
SOUTHEAST KANSAS

CITY           SKY/WX    TMP DP  RH WIND       PRES   REMARKS
CHANUTE        CLOUDY    60  56  86 E3        29.69R
COFFEYVILLE    CLOUDY    63  60  90 S9G17     29.69R
HUTCHINSON     CLOUDY    53  51  93 E9        29.72S FOG
MEDICINE LODGE   N/A     49  48  97 NW12      29.74R
NEWTON         CLOUDY    52  46  82 E8        29.73R
PARSONS        CLOUDY    62  60  93 S5        29.69R
WICHITA INTL   CLOUDY    56  53  90 NE8       29.70R
WICHITA JABRA  LGT RAIN  54  53  97 N3        29.70R
WICHITA MCCONL CLOUDY    55  54  94 N7        29.70R
WINFIELD       CLOUDY    58  56  93 E8        29.67F
$$

KSZ007>012-019>026-033>040-048>060-102>105-300500-
NORTHEAST KANSAS

CITY           SKY/WX    TMP DP  RH WIND       PRES   REMARKS
CONCORDIA      LGT RAIN  48  46  93 E14G24    29.76F
EMPORIA        LGT RAIN  54  52  93 NE10      29.71S
LAWRENCE       CLOUDY    53  51  93 NE14      29.79R THUNDER
MANHATTAN      CLOUDY    52  47  83 E14G26    29.74F
OLATHE IND     CLOUDY    55  53  93 E15G23    29.76F
OLATHE EXE     LGT RAIN  54  52  93 E15       29.76F
SALINA         CLOUDY    53  51  93 E8        29.74F
TOPEKA BILLARD LGT RAIN  52  50  93 NE15      29.78F
TOPEKA FORBES  LGT RAIN  53  51  93 NE12G17   29.76F FOG
$$




USA.gov is the U.S. government's official web portal to all federal, state and local government web resources and services.